CZ-6A DEB, 61286

Orbit data source: Space-Track

CZ-6A DEB, 61286 is space debris in LEO originally from a launch on Tue, 06 Aug 2024 UTC launched from the Taiyaun Space Center, China (TSC). Debris objects in space refer to the collection of defunct objects orbiting the Earth. Examples of debris include non-operational satellites, rocket bodies, and fragments generated from explosions, collisions, or faulty payload assembly.

Loading next visibility...
Identifier
61286, 2024-140SX
Orbit
LEO
Country
Flag of CNCN / PRC
Related business
Manufacturer
SAST
Mission
Spacecraft
Bus & Motor
Unknown
Mass
Unknown
Launch date (UTC)
2024-08-06 (2 years ago)
Launch vehicle
Unknown
Launch site
Taiyaun Space Center, China (TSC)
Object type
Payload
Rocket body
Debris
Shape & HBR
Unknown shape, 1.1 m
Radar Cross Section
Medium (>0.1 m² and <1 m²)

Expand to show TLE details & history
Last TLE update: 1 day ago

TLE from 1 day ago
0 CZ-6A DEB
1 61286U 24140SX  26170.76707312  .00002738  00000-0  14433-2 0  9990
2 61286  88.8629 265.2768 0099026 218.6244 140.7831 14.11220039 93150
Epoch: 2026-06-19T18:24Z
TLE epoch observation values (Epoch: 2026-06-19T18:24:35.117Z)
Latitude
0.00002°
Longitude
81.13915°
Altitude
914.027 km
Speed
7.366 km/s
True Right ascension
17h 41m 06s
True Declination
0° 00' 00"
Sunlit
Object was in full shadow at epoch
Visualization orbit readout
Latitude
Unknown
Longitude
Unknown
Altitude
Unknown
Speed
Unknown
Apparent Right ascension
Unknown
Apparent Declination
Unknown
Sunlit
N/A
Visualization observer readout
Local Sidereal Time
07:23:40
Azimuth
Unknown
Elevation
Unknown
Doppler factor
Unknown
Orbital elements
Apogee altitude
923.763 km
Perigee altitude
780.565 km
Semi-major axis
7,230.301 km
Eccentricity
0.0099
Inclination
88.8629°
RAAN
265.2768°
Arg. of periapsis
218.6244°
True anomaly
141.49372°
Mean anomaly
140.7831°
Eccentric anomaly
141.13909°
Mean motion
3.53028 °/min
Orbital period
101.98 mins
BSTAR
0.0014433
Loading maneuver chart data...
Computing Atmospheric mass density...
Loading historical data...
Loading historical data...
Loading historical data...
Loading historical data...
Loading historical data...
Loading historical data...
Loading historical data...

Documentation

Showing up to 5 results
|